Theta_e
313 309 304 307 316 320 323 327 328 328 329 325 324 335 339 341 347 350 357 359 356 361 361 362 361 361 361 361 360 358 357 356
308 303 307 311 319 322 323 327 328 328 323 329 337 339 342 346 350 347 355 358 360 360 361 361 361 361 361 360 360 358 357 355
304 302 307 321 322 323 322 325 326 328 323 327 338 342 345 347 349 346 353 357 357 359 361 361 360 360 361 360 360 359 356 354
302 302 306 320 324 323 321 325 327 325 324 329 339 342 345 345 345 349 353 357 357 358 360 360 361 360 361 360 360 359 357 354
302 302 305 315 325 322 322 324 325 330 324 331 335 340 342 340 344 350 354 356 357 354 355 359 360 360 360 360 359 358 357 355
303 303 304 315 323 325 323 322 334 334 325 327 336 339 337 338 342 347 351 353 354 356 351 350 352 360 360 359 358 357 355 353
304 302 306 321 320 325 328 326 328 330 331 334 337 336 333 333 336 340 346 351 353 354 353 352 351 354 358 356 356 355 353 352
307 307 310 315 320 322 323 324 325 327 336 337 335 333 330 329 329 333 337 343 348 351 351 352 350 353 355 352 350 349 348 349
308 309 311 311 318 324 322 320 326 326 333 336 335 333 332 330 331 332 336 340 344 350 352 350 348 350 350 349 349 349 350 349
310 308 309 311 320 322 324 323 330 331 335 337 336 335 335 335 333 334 335 338 341 345 349 350 348 347 346 347 347 347 347 347
309 309 308 315 315 316 322 327 328 332 334 336 338 339 340 341 340 340 339 339 340 344 346 347 348 345 345 345 345 346 345 342
309 309 307 308 311 319 320 327 328 329 332 335 337 339 341 343 343 345 345 344 342 342 345 345 346 346 345 346 346 344 343 342
308 308 311 315 311 314 321 325 326 327 330 333 337 339 340 342 344 347 348 349 346 343 345 345 345 345 345 345 343 342 341 341
307 307 315 312 304 313 319 322 322 326 327 330 333 337 339 342 344 348 348 348 348 344 343 344 344 344 343 343 342 340 338 335
303 308 315 312 306 313 312 318 321 324 326 329 331 334 337 336 337 340 347 348 347 347 343 344 345 343 343 343 339 336 335 334
301 305 306 306 306 311 313 310 312 321 325 328 330 333 337 340 340 339 336 343 346 345 345 344 342 340 338 336 335 334 332 332
304 306 304 306 306 308 313 316 313 318 323 326 329 334 338 341 342 342 340 340 343 343 343 341 338 336 335 332 332 332 332 331
304 305 305 306 306 309 318 317 317 320 323 325 329 333 336 340 342 342 341 341 342 343 342 342 340 338 336 333 333 333 332 331
300 304 306 303 304 306 314 323 322 322 323 325 329 331 333 335 337 339 341 341 341 342 341 341 339 336 334 333 332 331 329 325
302 301 298 303 297 305 308 316 322 323 324 325 329 332 333 333 332 334 335 339 341 340 340 339 339 337 335 334 331 331 328 317
Wind_Speed
2 2 4 0 4 2 1 2 5 4 2 1 3 4 10 5 13 16 15 15 15 15 15 16 16 15 13 13 13 13 12 10
2 5 2 2 3 5 3 5 3 4 4 2 5 11 8 13 15 17 15 15 16 16 16 16 15 14 13 13 13 12 11 9
1 2 2 3 3 5 5 1 1 5 7 5 3 5 13 16 16 18 14 14 16 15 14 14 15 15 13 12 11 10 10 8
3 4 2 4 6 5 3 2 3 3 8 7 3 10 12 13 16 14 15 14 13 13 13 14 14 12 11 10 9 8 7 6
2 3 3 2 3 9 2 4 5 4 4 2 5 5 12 12 11 11 11 11 11 13 13 12 12 12 11 10 9 8 7 6
2 2 3 2 3 3 3 2 4 4 2 3 7 11 13 12 10 10 10 10 11 11 14 13 12 12 12 10 9 8 7 7
3 5 1 2 4 2 1 4 2 5 2 2 16 15 14 13 11 11 11 12 11 11 11 10 11 11 10 10 10 7 7 5
3 4 4 2 5 5 4 6 6 7 9 13 16 15 15 15 14 13 13 14 12 11 11 11 8 9 10 9 7 6 6 5
4 8 5 3 4 5 5 10 4 11 15 17 16 14 14 16 16 19 17 12 14 12 11 11 9 6 4 4 4 4 5 5
4 4 4 5 1 5 11 2 7 9 17 19 18 18 17 16 16 15 15 15 15 15 12 10 6 5 5 4 4 3 3 4
10 8 7 3 9 9 13 13 4 9 16 19 17 19 16 14 13 13 14 14 15 13 11 9 8 5 5 5 4 3 3 4
8 9 4 5 5 5 6 12 13 7 13 15 19 20 16 15 16 15 14 13 12 13 11 11 9 8 4 3 4 4 4 4
6 3 3 6 5 11 9 2 11 15 10 12 16 17 19 17 17 15 13 11 12 11 11 11 10 8 5 5 5 4 4 5
3 1 2 6 6 9 6 11 13 14 16 14 16 17 16 15 14 12 12 12 10 9 10 12 10 8 6 5 5 5 5 5
2 4 5 4 9 14 1 6 14 17 17 17 16 15 12 11 11 11 12 11 12 13 13 11 9 7 6 7 6 6 6 6
5 4 3 6 15 17 12 11 18 18 16 16 17 14 9 6 5 7 8 9 10 10 12 12 8 7 6 6 6 6 6 5
7 6 6 6 13 15 10 8 11 15 18 14 16 7 7 6 5 6 6 8 11 12 13 11 9 8 6 6 7 6 5 6
11 4 5 9 15 11 5 4 4 10 13 13 10 9 8 7 6 5 7 8 9 11 13 9 7 5 4 8 5 5 5 5
9 8 5 6 8 5 1 3 1 6 10 10 14 12 9 7 6 5 7 9 9 9 10 9 10 9 9 8 6 5 4 4
7 4 5 2 5 3 5 10 6 7 9 10 11 10 11 10 8 8 7 8 10 10 10 9 11 10 12 6 7 3 3 3
Wind_Direction
26 73 20 76 216 242 288 255 209 174 30 125 133 150 149 126 148 155 156 154 151 153 155 154 153 148 145 145 148 148 150 152
341 15 95 273 298 225 229 207 195 154 152 183 281 156 155 145 152 157 154 160 150 159 161 156 154 152 153 157 159 158 157 154
12 341 282 247 241 216 230 309 197 200 152 153 181 124 135 146 153 156 157 168 164 162 160 157 160 165 165 164 161 160 165 165
342 342 299 255 213 241 203 189 95 228 162 142 95 153 146 155 159 156 159 168 163 163 166 166 171 169 167 166 168 168 167 171
293 303 293 257 195 238 282 161 176 167 195 2 198 142 143 150 151 153 155 166 171 176 177 174 176 169 170 179 178 175 176 181
235 308 279 247 234 282 235 178 105 137 247 194 179 146 134 139 147 154 153 174 185 186 187 189 183 178 186 186 182 183 188 192
214 199 270 210 259 168 145 186 201 156 264 336 143 150 143 150 167 174 178 184 189 194 196 192 191 190 190 195 197 194 204 200
224 206 253 257 244 294 256 188 208 148 89 130 153 159 168 174 182 188 194 198 191 198 195 199 199 196 200 202 203 199 202 202
228 225 258 286 247 230 260 272 185 178 152 159 166 179 191 186 187 193 195 196 195 195 200 204 211 198 202 206 201 202 210 200
259 219 205 241 221 244 230 227 134 145 162 167 181 189 200 200 195 199 198 201 193 195 194 200 211 209 200 213 204 208 208 210
253 272 249 259 245 255 253 228 132 146 172 183 193 202 202 217 204 205 211 204 203 194 198 194 203 208 210 202 198 202 209 201
276 267 236 256 269 199 256 237 217 176 192 192 200 206 201 211 212 204 217 209 203 202 198 191 203 206 201 198 194 194 191 170
223 219 227 188 230 230 231 100 232 221 211 203 213 200 210 208 221 209 214 208 201 203 195 197 200 201 194 190 180 189 171 154
125 192 121 249 259 272 233 224 235 234 228 216 213 211 214 218 223 217 216 214 196 193 201 196 196 191 183 172 169 157 151 143
222 44 140 269 291 278 299 235 242 230 227 225 219 213 218 224 225 222 220 216 204 190 188 193 185 171 160 146 150 147 146 141
250 169 297 268 267 284 294 283 252 238 223 219 224 217 198 166 192 218 216 213 196 185 173 166 154 139 130 136 133 142 132 121
275 270 278 268 277 283 315 292 239 230 221 215 221 173 160 137 164 171 190 180 177 172 163 162 156 154 153 143 138 133 123 114
290 238 266 302 290 288 269 272 253 241 230 219 195 181 151 147 154 172 164 168 167 170 165 171 157 143 139 140 142 133 118 104
270 314 259 293 261 245 213 297 303 249 244 221 211 191 165 156 145 138 145 150 156 158 155 146 136 126 120 112 125 139 130 114
266 282 288 11 289 264 329 303 208 210 225 224 210 186 168 155 149 151 140 136 129 130 127 140 149 143 153 149 148 110 120 100